Time,TemperatureF,DewpointF,PressureIn,WindDirection,WindDirectionDegrees,WindSpeedMPH,WindSpeedGustMPH,Humidity,HourlyPrecipIn,Conditions,Clouds,dailyrainin,SoftwareType,DateUTC
2013-04-03 00:00:00,25.8,6.4,30.24,WNW,282,0.0,0.0,43,0.00,,---,0.00,VWS V14.01,2013-04-03 04:00:00,
2013-04-03 00:02:00,25.8,6.4,30.24,WNW,282,0.0,0.0,43,0.00,,---,0.00,VWS V14.01,2013-04-03 04:02:00,
2013-04-03 00:04:00,25.8,6.4,30.24,WNW,282,0.0,0.0,43,0.00,,---,0.00,VWS V14.01,2013-04-03 04:04:00,
2013-04-03 00:10:00,25.6,6.8,30.24,WNW,282,0.0,0.0,44,0.00,,---,0.00,VWS V14.01,2013-04-03 04:10:00,
2013-04-03 00:15:00,25.5,6.6,30.24,WNW,282,0.0,0.0,44,0.00,,---,0.00,VWS V14.01,2013-04-03 04:15:00,
2013-04-03 00:20:00,25.1,6.3,30.24,West,260,0.0,0.0,44,0.00,,---,0.00,VWS V14.01,2013-04-03 04:20:00,
2013-04-03 00:25:00,25.1,6.3,30.24,West,260,0.0,0.0,44,0.00,,---,0.00,VWS V14.01,2013-04-03 04:25:00,
2013-04-03 00:30:00,24.9,6.1,30.24,SW,215,0.0,0.0,44,0.00,,---,0.00,VWS V14.01,2013-04-03 04:30:00,
2013-04-03 00:35:00,24.7,5.9,30.24,SW,215,0.0,0.0,44,0.00,,---,0.00,VWS V14.01,2013-04-03 04:35:00,
2013-04-03 00:40:00,24.4,5.6,30.24,SW,215,0.0,0.0,44,0.00,,---,0.00,VWS V14.01,2013-04-03 04:40:00,
2013-04-03 00:45:00,24.2,5.4,30.24,SW,215,0.0,0.0,44,0.00,,---,0.00,VWS V14.01,2013-04-03 04:45:00,
2013-04-03 00:50:00,24.0,5.8,30.24,SW,215,0.0,0.0,45,0.00,,---,0.00,VWS V14.01,2013-04-03 04:50:00,
2013-04-03 00:56:00,24.0,5.8,30.24,SW,215,0.0,0.0,45,0.00,,---,0.00,VWS V14.01,2013-04-03 04:56:00,
2013-04-03 01:02:00,23.8,6.1,30.24,SW,215,0.0,0.0,46,0.00,,---,0.00,VWS V14.01,2013-04-03 05:02:00,
2013-04-03 01:07:00,23.8,6.1,30.24,SW,215,0.0,0.0,46,0.00,,---,0.00,VWS V14.01,2013-04-03 05:07:00,
2013-04-03 01:12:00,23.7,5.9,30.24,West,260,0.0,0.0,46,0.00,,---,0.00,VWS V14.01,2013-04-03 05:12:00,
2013-04-03 01:18:00,23.7,6.4,30.24,West,260,0.0,0.0,47,0.00,,---,0.00,VWS V14.01,2013-04-03 05:18:00,
2013-04-03 01:23:00,23.5,6.2,30.24,West,260,0.0,0.0,47,0.00,,---,0.00,VWS V14.01,2013-04-03 05:23:00,
2013-04-03 01:28:00,23.5,6.2,30.24,West,260,0.0,0.0,47,0.00,,---,0.00,VWS V14.01,2013-04-03 05:28:00,
2013-04-03 01:33:00,23.7,6.4,30.24,West,260,2.3,2.3,47,0.00,,---,0.00,VWS V14.01,2013-04-03 05:33:00,
2013-04-03 01:38:00,23.5,5.8,30.24,West,260,2.3,2.3,46,0.00,,---,0.00,VWS V14.01,2013-04-03 05:38:00,
2013-04-03 01:44:00,23.3,6.1,30.24,West,260,2.3,2.3,47,0.00,,---,0.00,VWS V14.01,2013-04-03 05:44:00,
2013-04-03 01:49:00,23.1,6.4,30.24,West,260,2.3,2.3,48,0.00,,---,0.00,VWS V14.01,2013-04-03 05:49:00,
2013-04-03 01:54:00,22.9,6.2,30.24,West,260,2.3,2.3,48,0.00,,---,0.00,VWS V14.01,2013-04-03 05:54:00,
2013-04-03 01:59:00,22.9,6.2,30.24,West,260,2.3,2.3,48,0.00,,---,0.00,VWS V14.01,2013-04-03 05:59:00,
2013-04-03 02:04:00,22.9,6.2,30.24,West,260,2.3,2.3,48,0.00,,---,0.00,VWS V14.01,2013-04-03 06:04:00,
2013-04-03 02:09:00,22.8,6.5,30.24,West,260,2.3,2.3,49,0.00,,---,0.00,VWS V14.01,2013-04-03 06:09:00,
2013-04-03 02:14:00,22.8,6.5,30.24,West,260,2.3,2.3,49,0.00,,---,0.00,VWS V14.01,2013-04-03 06:14:00,
2013-04-03 02:19:00,22.8,6.5,30.24,West,260,2.0,3.0,49,0.00,,---,0.00,VWS V14.01,2013-04-03 06:19:00,
2013-04-03 02:25:00,22.8,6.0,30.24,West,260,0.0,0.0,48,0.00,,---,0.00,VWS V14.01,2013-04-03 06:25:00,
2013-04-03 02:30:00,22.8,6.5,30.24,West,260,0.0,0.0,49,0.00,,---,0.00,VWS V14.01,2013-04-03 06:30:00,
2013-04-03 02:35:00,22.6,6.8,30.24,West,260,0.0,1.7,50,0.00,,---,0.00,VWS V14.01,2013-04-03 06:35:00,
2013-04-03 02:40:00,22.4,6.6,30.24,West,260,0.0,0.0,50,0.00,,---,0.00,VWS V14.01,2013-04-03 06:40:00,
2013-04-03 02:45:00,22.4,7.0,30.24,West,260,0.0,0.0,51,0.00,,---,0.00,VWS V14.01,2013-04-03 06:45:00,
2013-04-03 02:51:00,22.4,7.0,30.24,WNW,282,0.0,0.0,51,0.00,,---,0.00,VWS V14.01,2013-04-03 06:51:00,
2013-04-03 02:57:00,22.2,6.9,30.24,WNW,282,0.0,0.0,51,0.00,,---,0.00,VWS V14.01,2013-04-03 06:57:00,
2013-04-03 03:02:00,22.0,6.7,30.24,NW,305,0.0,0.0,51,0.00,,---,0.00,VWS V14.01,2013-04-03 07:02:00,
2013-04-03 03:07:00,22.2,6.4,30.24,NW,305,0.0,0.0,50,0.00,,---,0.00,VWS V14.01,2013-04-03 07:07:00,
2013-04-03 03:12:00,22.2,6.4,30.24,West,260,0.0,0.0,50,0.00,,---,0.00,VWS V14.01,2013-04-03 07:12:00,
2013-04-03 03:17:00,22.2,6.4,30.24,West,260,0.0,0.0,50,0.00,,---,0.00,VWS V14.01,2013-04-03 07:17:00,
2013-04-03 03:23:00,22.2,6.9,30.24,West,260,3.0,3.0,51,0.00,,---,0.00,VWS V14.01,2013-04-03 07:23:00,
2013-04-03 03:28:00,22.0,7.1,30.24,West,260,3.0,3.0,52,0.00,,---,0.00,VWS V14.01,2013-04-03 07:28:00,
2013-04-03 03:33:00,21.9,6.9,30.24,West,260,2.0,2.0,52,0.00,,---,0.00,VWS V14.01,2013-04-03 07:33:00,
2013-04-03 03:38:00,21.9,6.9,30.24,West,260,2.3,2.3,52,0.00,,---,0.00,VWS V14.01,2013-04-03 07:38:00,
2013-04-03 03:44:00,21.9,6.9,30.24,West,260,2.0,2.0,52,0.00,,---,0.00,VWS V14.01,2013-04-03 07:44:00,
2013-04-03 03:49:00,21.7,6.8,30.24,West,260,3.0,3.0,52,0.00,,---,0.00,VWS V14.01,2013-04-03 07:49:00,
2013-04-03 03:54:00,21.9,6.9,30.24,West,260,2.0,3.0,52,0.00,,---,0.00,VWS V14.01,2013-04-03 07:54:00,
2013-04-03 03:59:00,21.9,6.9,30.24,West,260,3.6,3.6,52,0.00,,---,0.00,VWS V14.01,2013-04-03 07:59:00,
2013-04-03 04:04:00,21.7,7.2,30.24,West,260,3.6,3.6,53,0.00,,---,0.00,VWS V14.01,2013-04-03 08:04:00,
2013-04-03 04:09:00,21.3,6.9,30.24,West,260,1.3,3.6,53,0.00,,---,0.00,VWS V14.01,2013-04-03 08:09:00,
2013-04-03 04:14:00,21.3,6.9,30.24,West,260,1.3,1.3,53,0.00,,---,0.00,VWS V14.01,2013-04-03 08:14:00,
2013-04-03 04:19:00,21.3,6.9,30.24,West,260,3.6,4.3,53,0.00,,---,0.00,VWS V14.01,2013-04-03 08:19:00,
2013-04-03 04:24:00,21.3,6.9,30.24,West,260,3.0,3.0,53,0.00,,---,0.00,VWS V14.01,2013-04-03 08:24:00,
2013-04-03 04:29:00,21.3,6.9,30.27,West,260,3.0,3.0,53,0.00,,---,0.00,VWS V14.01,2013-04-03 08:29:00,
2013-04-03 04:35:00,21.3,6.9,30.27,West,260,3.0,3.0,53,0.00,,---,0.00,VWS V14.01,2013-04-03 08:35:00,
2013-04-03 04:40:00,21.5,7.0,30.27,West,260,4.3,4.3,53,0.00,,---,0.00,VWS V14.01,2013-04-03 08:40:00,
2013-04-03 04:45:00,21.7,7.2,30.27,West,260,4.3,4.3,53,0.00,,---,0.00,VWS V14.01,2013-04-03 08:45:00,
2013-04-03 04:50:00,21.7,7.6,30.27,West,260,4.6,4.6,54,0.00,,---,0.00,VWS V14.01,2013-04-03 08:50:00,
2013-04-03 04:55:00,21.7,7.6,30.27,West,260,4.6,4.6,54,0.00,,---,0.00,VWS V14.01,2013-04-03 08:55:00,
2013-04-03 05:00:00,22.0,7.5,30.27,West,260,4.6,4.6,53,0.00,,---,0.00,VWS V14.01,2013-04-03 09:00:00,
2013-04-03 05:06:00,22.0,7.9,30.27,West,260,0.0,4.6,54,0.00,,---,0.00,VWS V14.01,2013-04-03 09:06:00,
2013-04-03 05:11:00,21.9,7.8,30.27,SW,215,3.0,3.0,54,0.00,,---,0.00,VWS V14.01,2013-04-03 09:11:00,
2013-04-03 05:17:00,22.2,7.7,30.27,SW,215,3.0,3.0,53,0.00,,---,0.00,VWS V14.01,2013-04-03 09:17:00,
2013-04-03 05:22:00,22.2,8.1,30.27,West,260,2.0,4.3,54,0.00,,---,0.00,VWS V14.01,2013-04-03 09:22:00,
2013-04-03 05:27:00,22.0,7.9,30.27,West,260,2.0,2.0,54,0.00,,---,0.00,VWS V14.01,2013-04-03 09:27:00,
2013-04-03 05:32:00,22.0,7.9,30.27,WSW,238,4.3,4.3,54,0.00,,---,0.00,VWS V14.01,2013-04-03 09:32:00,
2013-04-03 05:37:00,22.0,7.9,30.27,West,260,3.6,3.6,54,0.00,,---,0.00,VWS V14.01,2013-04-03 09:37:00,
2013-04-03 05:42:00,22.0,7.9,30.27,West,260,3.0,4.0,54,0.00,,---,0.00,VWS V14.01,2013-04-03 09:42:00,
2013-04-03 05:48:00,22.0,7.9,30.27,West,260,3.0,3.0,54,0.00,,---,0.00,VWS V14.01,2013-04-03 09:48:00,
2013-04-03 05:53:00,22.2,8.1,30.27,West,260,3.0,3.0,54,0.00,,---,0.00,VWS V14.01,2013-04-03 09:53:00,
2013-04-03 05:58:00,22.2,8.5,30.27,WSW,238,3.0,3.0,55,0.00,,---,0.00,VWS V14.01,2013-04-03 09:58:00,
2013-04-03 06:03:00,22.0,8.4,30.27,SW,215,3.6,3.6,55,0.00,,---,0.00,VWS V14.01,2013-04-03 10:03:00,
2013-04-03 06:08:00,22.0,8.4,30.27,SW,215,3.6,3.6,55,0.00,,---,0.00,VWS V14.01,2013-04-03 10:08:00,
2013-04-03 06:13:00,22.2,8.5,30.27,West,260,3.0,3.0,55,0.00,,---,0.00,VWS V14.01,2013-04-03 10:13:00,
2013-04-03 06:18:00,22.2,8.5,30.27,West,260,3.6,3.6,55,0.00,,---,0.00,VWS V14.01,2013-04-03 10:18:00,
2013-04-03 06:23:00,22.2,8.5,30.27,West,260,2.3,3.6,55,0.00,,---,0.00,VWS V14.01,2013-04-03 10:23:00,
2013-04-03 06:29:00,22.2,8.5,30.30,West,260,2.3,2.3,55,0.00,,---,0.00,VWS V14.01,2013-04-03 10:29:00,
2013-04-03 06:34:00,22.2,8.5,30.30,West,260,4.3,4.3,55,0.00,,---,0.00,VWS V14.01,2013-04-03 10:34:00,
2013-04-03 06:39:00,22.2,8.5,30.30,West,260,3.6,4.3,55,0.00,,---,0.00,VWS V14.01,2013-04-03 10:39:00,
2013-04-03 06:45:00,22.2,8.5,30.30,West,260,3.6,3.6,55,0.00,,---,0.00,VWS V14.01,2013-04-03 10:45:00,
2013-04-03 06:50:00,22.4,8.7,30.30,West,260,0.0,0.0,55,0.00,,---,0.00,VWS V14.01,2013-04-03 10:50:00,
2013-04-03 06:55:00,22.4,8.7,30.30,West,260,0.0,0.0,55,0.00,,---,0.00,VWS V14.01,2013-04-03 10:55:00,
2013-04-03 07:00:00,22.4,8.7,30.30,West,260,0.0,0.0,55,0.00,,---,0.00,VWS V14.01,2013-04-03 11:00:00,
2013-04-03 07:05:00,22.6,8.4,30.30,West,260,0.0,0.0,54,0.00,,---,0.00,VWS V14.01,2013-04-03 11:05:00,
2013-04-03 07:10:00,22.6,8.9,30.30,West,260,0.0,0.0,55,0.00,,---,0.00,VWS V14.01,2013-04-03 11:10:00,
2013-04-03 07:16:00,22.6,8.9,30.33,West,260,0.0,0.0,55,0.00,,---,0.00,VWS V14.01,2013-04-03 11:16:00,
2013-04-03 07:21:00,22.9,9.2,30.33,West,260,0.0,0.0,55,0.00,,---,0.00,VWS V14.01,2013-04-03 11:21:00,
2013-04-03 07:26:00,22.9,9.2,30.33,West,260,0.0,0.0,55,0.00,,---,0.00,VWS V14.01,2013-04-03 11:26:00,
2013-04-03 07:32:00,22.9,9.2,30.33,West,260,0.0,0.0,55,0.00,,---,0.00,VWS V14.01,2013-04-03 11:32:00,
2013-04-03 07:37:00,22.9,9.2,30.33,West,260,0.0,0.0,55,0.00,,---,0.00,VWS V14.01,2013-04-03 11:37:00,
2013-04-03 07:42:00,22.9,9.2,30.33,West,260,0.0,0.0,55,0.00,,---,0.00,VWS V14.01,2013-04-03 11:42:00,
2013-04-03 07:47:00,22.9,9.6,30.33,West,260,0.0,0.0,56,0.00,,---,0.00,VWS V14.01,2013-04-03 11:47:00,
2013-04-03 07:52:00,23.3,9.9,30.33,West,260,0.0,0.0,56,0.00,,---,0.00,VWS V14.01,2013-04-03 11:52:00,
2013-04-03 07:58:00,23.8,10.4,30.33,West,260,0.0,0.0,56,0.00,,---,0.00,VWS V14.01,2013-04-03 11:58:00,
2013-04-03 08:03:00,24.4,10.9,30.33,West,260,0.0,0.0,56,0.00,,---,0.00,VWS V14.01,2013-04-03 12:03:00,
2013-04-03 08:08:00,24.7,11.3,30.33,West,260,0.0,0.0,56,0.00,,---,0.00,VWS V14.01,2013-04-03 12:08:00,
2013-04-03 08:14:00,25.1,11.6,30.33,West,260,0.0,0.0,56,0.00,,---,0.00,VWS V14.01,2013-04-03 12:14:00,
2013-04-03 08:19:00,25.5,12.0,30.33,NNW,328,0.0,0.0,56,0.00,,---,0.00,VWS V14.01,2013-04-03 12:19:00,
2013-04-03 08:24:00,25.5,11.6,30.33,NNW,328,0.0,0.0,55,0.00,,---,0.00,VWS V14.01,2013-04-03 12:24:00,
2013-04-03 08:30:00,25.8,12.3,30.33,North,350,0.0,0.0,56,0.00,,---,0.00,VWS V14.01,2013-04-03 12:30:00,
2013-04-03 08:35:00,26.2,12.2,30.33,NNW,328,5.3,5.3,55,0.00,,---,0.00,VWS V14.01,2013-04-03 12:35:00,
2013-04-03 08:40:00,26.4,12.4,30.33,NNW,328,5.3,5.3,55,0.00,,---,0.00,VWS V14.01,2013-04-03 12:40:00,
2013-04-03 08:45:00,26.7,12.7,30.33,NNW,328,5.3,5.3,55,0.00,,---,0.00,VWS V14.01,2013-04-03 12:45:00,
2013-04-03 08:50:00,27.1,13.1,30.33,NE,35,4.0,5.3,55,0.00,,---,0.00,VWS V14.01,2013-04-03 12:50:00,
2013-04-03 08:55:00,27.3,13.2,30.33,North,350,3.6,4.0,55,0.00,,---,0.00,VWS V14.01,2013-04-03 12:55:00,
2013-04-03 09:00:00,27.4,13.0,30.36,North,350,3.6,3.6,54,0.00,,---,0.00,VWS V14.01,2013-04-03 13:00:00,
2013-04-03 09:06:00,28.2,13.7,30.36,NE,35,5.0,5.0,54,0.00,,---,0.00,VWS V14.01,2013-04-03 13:06:00,
2013-04-03 09:11:00,28.3,13.8,30.36,NE,35,6.0,6.0,54,0.00,,---,0.00,VWS V14.01,2013-04-03 13:11:00,
2013-04-03 09:16:00,28.9,13.9,30.36,NE,35,4.3,4.3,53,0.00,,---,0.00,VWS V14.01,2013-04-03 13:16:00,
2013-04-03 09:22:00,28.9,13.9,30.36,NE,35,1.7,4.3,53,0.00,,---,0.00,VWS V14.01,2013-04-03 13:22:00,
2013-04-03 09:27:00,29.6,14.1,30.36,North,350,4.0,4.0,52,0.00,,---,0.00,VWS V14.01,2013-04-03 13:27:00,
2013-04-03 09:32:00,29.8,14.3,30.36,North,350,5.3,5.3,52,0.00,,---,0.00,VWS V14.01,2013-04-03 13:32:00,
2013-04-03 09:37:00,30.1,14.2,30.36,North,350,3.3,5.0,51,0.00,,---,0.00,VWS V14.01,2013-04-03 13:37:00,
2013-04-03 09:42:00,30.3,14.4,30.36,North,350,5.3,5.3,51,0.00,,---,0.00,VWS V14.01,2013-04-03 13:42:00,
2013-04-03 09:47:00,30.5,14.1,30.36,North,350,5.0,6.3,50,0.00,,---,0.00,VWS V14.01,2013-04-03 13:47:00,
2013-04-03 09:52:00,30.9,14.0,30.36,North,350,9.6,9.6,49,0.00,,---,0.00,VWS V14.01,2013-04-03 13:52:00,
2013-04-03 09:58:00,31.6,14.6,30.36,North,350,5.0,5.0,49,0.00,,---,0.00,VWS V14.01,2013-04-03 13:58:00,
2013-04-03 10:03:00,32.1,14.7,30.36,North,350,4.6,4.6,48,0.00,,---,0.00,VWS V14.01,2013-04-03 14:03:00,
2013-04-03 10:08:00,32.5,15.0,30.36,NE,35,5.6,5.6,48,0.00,,---,0.00,VWS V14.01,2013-04-03 14:08:00,
2013-04-03 10:13:00,32.7,14.7,30.36,North,350,5.6,5.6,47,0.00,,---,0.00,VWS V14.01,2013-04-03 14:13:00,
2013-04-03 10:18:00,32.7,14.2,30.39,North,350,7.3,7.3,46,0.00,,---,0.00,VWS V14.01,2013-04-03 14:18:00,
2013-04-03 10:23:00,32.8,13.9,30.39,NE,35,10.6,10.6,45,0.00,,---,0.00,VWS V14.01,2013-04-03 14:23:00,
2013-04-03 10:28:00,33.4,13.8,30.39,North,350,9.3,11.6,44,0.00,,---,0.00,VWS V14.01,2013-04-03 14:28:00,
2013-04-03 10:33:00,33.4,13.8,30.39,North,350,6.0,6.0,44,0.00,,---,0.00,VWS V14.01,2013-04-03 14:33:00,
2013-04-03 10:39:00,33.4,13.8,30.39,North,350,4.0,4.0,44,0.00,,---,0.00,VWS V14.01,2013-04-03 14:39:00,
2013-04-03 10:44:00,33.7,14.2,30.39,North,350,7.9,7.9,44,0.00,,---,0.00,VWS V14.01,2013-04-03 14:44:00,
2013-04-03 10:49:00,33.9,14.3,30.39,North,350,4.6,4.6,44,0.00,,---,0.00,VWS V14.01,2013-04-03 14:49:00,
2013-04-03 10:54:00,34.8,15.1,30.39,NE,35,8.6,9.6,44,0.00,,---,0.00,VWS V14.01,2013-04-03 14:54:00,
2013-04-03 10:59:00,34.3,14.1,30.39,NW,305,3.0,6.0,43,0.00,,---,0.00,VWS V14.01,2013-04-03 14:59:00,
2013-04-03 11:04:00,34.5,14.3,30.39,East,80,5.0,5.0,43,0.00,,---,0.00,VWS V14.01,2013-04-03 15:04:00,
2013-04-03 11:10:00,34.5,14.3,30.39,North,350,4.6,4.6,43,0.00,,---,0.00,VWS V14.01,2013-04-03 15:10:00,
2013-04-03 11:15:00,35.4,15.1,30.39,North,350,5.3,5.3,43,0.00,,---,0.00,VWS V14.01,2013-04-03 15:15:00,
2013-04-03 11:20:00,35.5,14.7,30.39,North,350,6.0,6.3,42,0.00,,---,0.00,VWS V14.01,2013-04-03 15:20:00,
2013-04-03 11:25:00,35.4,14.6,30.39,North,350,7.9,7.9,42,0.00,,---,0.00,VWS V14.01,2013-04-03 15:25:00,
2013-04-03 11:30:00,35.7,14.9,30.39,NW,305,7.3,7.3,42,0.00,,---,0.00,VWS V14.01,2013-04-03 15:30:00,
2013-04-03 11:36:00,36.4,15.6,30.39,North,350,3.6,5.6,42,0.00,,---,0.00,VWS V14.01,2013-04-03 15:36:00,
2013-04-03 11:41:00,36.3,15.4,30.39,WNW,282,4.3,4.3,42,0.00,,---,0.00,VWS V14.01,2013-04-03 15:41:00,
2013-04-03 11:46:00,37.0,15.5,30.39,NW,305,4.3,4.3,41,0.00,,---,0.00,VWS V14.01,2013-04-03 15:46:00,
2013-04-03 11:52:00,37.5,16.0,30.39,NNW,328,5.6,5.6,41,0.00,,---,0.00,VWS V14.01,2013-04-03 15:52:00,
2013-04-03 11:57:00,37.5,16.0,30.39,North,350,7.3,7.3,41,0.00,,---,0.00,VWS V14.01,2013-04-03 15:57:00,
2013-04-03 12:02:00,37.2,15.1,30.39,NE,35,4.0,9.3,40,0.00,,---,0.00,VWS V14.01,2013-04-03 16:02:00,
2013-04-03 12:07:00,37.5,15.4,30.39,NW,305,2.0,2.0,40,0.00,,---,0.00,VWS V14.01,2013-04-03 16:07:00,
2013-04-03 12:13:00,37.7,15.6,30.39,North,350,5.6,5.6,40,0.00,,---,0.00,VWS V14.01,2013-04-03 16:13:00,
2013-04-03 12:18:00,38.6,15.8,30.39,North,350,8.3,12.9,39,0.00,,---,0.00,VWS V14.01,2013-04-03 16:18:00,
2013-04-03 12:23:00,40.2,17.8,30.39,NW,305,4.6,4.6,40,0.00,,---,0.00,VWS V14.01,2013-04-03 16:23:00,
2013-04-03 12:29:00,39.0,16.1,30.39,North,350,5.6,7.3,39,0.00,,---,0.00,VWS V14.01,2013-04-03 16:29:00,
2013-04-03 12:34:00,38.6,15.8,30.39,North,350,5.0,8.6,39,0.00,,---,0.00,VWS V14.01,2013-04-03 16:34:00,
2013-04-03 12:40:00,39.1,16.3,30.39,NE,35,5.6,5.6,39,0.00,,---,0.00,VWS V14.01,2013-04-03 16:40:00,
2013-04-03 12:45:00,40.0,17.1,30.39,NW,305,8.6,8.6,39,0.00,,---,0.00,VWS V14.01,2013-04-03 16:45:00,
2013-04-03 12:50:00,39.7,16.2,30.39,North,350,9.6,9.9,38,0.00,,---,0.00,VWS V14.01,2013-04-03 16:50:00,
2013-04-03 12:55:00,40.4,16.8,30.39,NW,305,9.6,9.6,38,0.00,,---,0.00,VWS V14.01,2013-04-03 16:55:00,
2013-04-03 13:00:00,40.6,17.0,30.39,South,170,3.0,5.0,38,0.00,,---,0.00,VWS V14.01,2013-04-03 17:00:00,
2013-04-03 13:06:00,40.8,17.1,30.39,NW,305,4.6,4.6,38,0.00,,---,0.00,VWS V14.01,2013-04-03 17:06:00,
2013-04-03 13:11:00,40.9,16.0,30.39,NE,35,6.0,7.3,36,0.00,,---,0.00,VWS V14.01,2013-04-03 17:11:00,
2013-04-03 13:17:00,41.5,15.9,30.36,NE,35,10.9,10.9,35,0.00,,---,0.00,VWS V14.01,2013-04-03 17:17:00,
2013-04-03 13:23:00,42.0,16.4,30.36,North,350,10.6,10.6,35,0.00,,---,0.00,VWS V14.01,2013-04-03 17:23:00,
2013-04-03 13:28:00,42.6,16.9,30.36,NE,35,7.9,10.6,35,0.00,,---,0.00,VWS V14.01,2013-04-03 17:28:00,
2013-04-03 13:33:00,42.6,16.9,30.36,NE,35,10.9,10.9,35,0.00,,---,0.00,VWS V14.01,2013-04-03 17:33:00,
2013-04-03 13:38:00,42.7,16.3,30.36,North,350,6.3,7.9,34,0.00,,---,0.00,VWS V14.01,2013-04-03 17:38:00,
2013-04-03 13:44:00,42.2,15.9,30.36,North,350,5.3,5.3,34,0.00,,---,0.00,VWS V14.01,2013-04-03 17:44:00,
2013-04-03 13:50:00,42.6,16.9,30.36,North,350,10.9,10.9,35,0.00,,---,0.00,VWS V14.01,2013-04-03 17:50:00,
2013-04-03 13:55:00,43.6,16.5,30.36,NE,35,5.3,8.6,33,0.00,,---,0.00,VWS V14.01,2013-04-03 17:55:00,
2013-04-03 14:01:00,43.5,16.3,30.36,NE,35,12.9,12.9,33,0.00,,---,0.00,VWS V14.01,2013-04-03 18:01:00,
2013-04-03 14:06:00,44.2,16.2,30.36,NNE,12,4.6,4.6,32,0.00,,---,0.00,VWS V14.01,2013-04-03 18:06:00,
2013-04-03 14:11:00,44.9,18.9,30.36,East,80,7.9,7.9,35,0.00,,---,0.00,VWS V14.01,2013-04-03 18:11:00,
2013-04-03 14:16:00,45.3,17.9,30.36,NE,35,7.0,7.0,33,0.00,,---,0.00,VWS V14.01,2013-04-03 18:16:00,
2013-04-03 14:22:00,44.9,18.2,30.36,North,350,3.6,3.6,34,0.00,,---,0.00,VWS V14.01,2013-04-03 18:22:00,
2013-04-03 14:27:00,44.5,16.5,30.36,NNE,12,8.6,8.6,32,0.00,,---,0.00,VWS V14.01,2013-04-03 18:27:00,
2013-04-03 14:32:00,44.2,16.2,30.36,North,350,8.3,9.6,32,0.00,,---,0.00,VWS V14.01,2013-04-03 18:32:00,
2013-04-03 14:38:00,45.1,17.0,30.36,North,350,4.6,6.0,32,0.00,,---,0.00,VWS V14.01,2013-04-03 18:38:00,
2013-04-03 14:44:00,44.7,16.0,30.36,North,350,4.6,4.6,31,0.00,,---,0.00,VWS V14.01,2013-04-03 18:44:00,
2013-04-03 14:50:00,44.5,15.1,30.36,SW,215,4.6,4.6,30,0.00,,---,0.00,VWS V14.01,2013-04-03 18:50:00,
2013-04-03 14:55:00,44.5,15.8,30.36,SW,215,7.0,7.0,31,0.00,,---,0.00,VWS V14.01,2013-04-03 18:55:00,
2013-04-03 15:00:00,45.3,15.7,30.36,NW,305,4.6,6.3,30,0.00,,---,0.00,VWS V14.01,2013-04-03 19:00:00,
2013-04-03 15:05:00,45.1,15.5,30.36,NW,305,3.6,4.6,30,0.00,,---,0.00,VWS V14.01,2013-04-03 19:05:00,
2013-04-03 15:11:00,44.7,14.4,30.36,East,80,3.3,3.3,29,0.00,,---,0.00,VWS V14.01,2013-04-03 19:11:00,
2013-04-03 15:16:00,44.9,14.6,30.36,WNW,282,4.0,4.0,29,0.00,,---,0.00,VWS V14.01,2013-04-03 19:16:00,
2013-04-03 15:21:00,44.5,14.3,30.36,NE,35,8.9,9.6,29,0.00,,---,0.00,VWS V14.01,2013-04-03 19:21:00,
2013-04-03 15:26:00,45.3,15.7,30.36,North,350,3.6,6.0,30,0.00,,---,0.00,VWS V14.01,2013-04-03 19:26:00,
2013-04-03 15:31:00,44.9,15.4,30.33,North,350,5.0,5.0,30,0.00,,---,0.00,VWS V14.01,2013-04-03 19:31:00,
2013-04-03 15:37:00,44.2,13.2,30.33,NE,35,5.6,7.0,28,0.00,,---,0.00,VWS V14.01,2013-04-03 19:37:00,
2013-04-03 15:42:00,44.7,15.2,30.33,West,260,4.0,8.9,30,0.00,,---,0.00,VWS V14.01,2013-04-03 19:42:00,
2013-04-03 15:47:00,44.7,14.4,30.33,West,260,2.0,2.0,29,0.00,,---,0.00,VWS V14.01,2013-04-03 19:47:00,
2013-04-03 15:52:00,45.3,14.9,30.33,North,350,1.7,3.6,29,0.00,,---,0.00,VWS V14.01,2013-04-03 19:52:00,
2013-04-03 15:58:00,45.3,14.9,30.33,SE,125,4.0,4.0,29,0.00,,---,0.00,VWS V14.01,2013-04-03 19:58:00,
2013-04-03 16:04:00,44.5,13.5,30.33,SE,125,4.3,4.3,28,0.00,,---,0.00,VWS V14.01,2013-04-03 20:04:00,
2013-04-03 16:10:00,44.9,13.8,30.33,East,80,3.3,5.0,28,0.00,,---,0.00,VWS V14.01,2013-04-03 20:10:00,
2013-04-03 16:15:00,44.5,13.5,30.33,North,350,4.3,4.3,28,0.00,,---,0.00,VWS V14.01,2013-04-03 20:15:00,
2013-04-03 16:20:00,44.7,13.6,30.33,SE,125,4.0,4.0,28,0.00,,---,0.00,VWS V14.01,2013-04-03 20:20:00,
2013-04-03 16:25:00,44.9,15.4,30.33,North,350,1.3,1.3,30,0.00,,---,0.00,VWS V14.01,2013-04-03 20:25:00,
2013-04-03 16:30:00,44.7,14.4,30.33,South,170,5.3,5.3,29,0.00,,---,0.00,VWS V14.01,2013-04-03 20:30:00,
2013-04-03 16:35:00,44.2,12.3,30.33,East,80,3.3,3.3,27,0.00,,---,0.00,VWS V14.01,2013-04-03 20:35:00,
2013-04-03 16:40:00,44.0,13.0,30.33,South,170,3.3,8.3,28,0.00,,---,0.00,VWS V14.01,2013-04-03 20:40:00,
2013-04-03 16:47:00,44.7,13.6,30.33,South,170,3.3,3.3,28,0.00,,---,0.00,VWS V14.01,2013-04-03 20:47:00,
2013-04-03 16:52:00,44.9,13.8,30.33,South,170,3.3,3.3,28,0.00,,---,0.00,VWS V14.01,2013-04-03 20:52:00,
2013-04-03 16:57:00,44.7,12.8,30.33,NE,35,3.3,3.3,27,0.00,,---,0.00,VWS V14.01,2013-04-03 20:57:00,
2013-04-03 17:02:00,45.4,14.2,30.33,NE,35,3.3,3.3,28,0.00,,---,0.00,VWS V14.01,2013-04-03 21:02:00,
2013-04-03 17:08:00,45.6,11.8,30.33,NE,35,3.3,3.3,25,0.00,,---,0.00,VWS V14.01,2013-04-03 21:08:00,
2013-04-03 17:13:00,45.4,8.8,30.33,NE,35,3.3,3.3,22,0.00,,---,0.00,VWS V14.01,2013-04-03 21:13:00,
2013-04-03 17:18:00,45.3,11.5,30.33,NE,35,3.3,3.3,25,0.00,,---,0.00,VWS V14.01,2013-04-03 21:18:00,
2013-04-03 17:23:00,44.9,11.2,30.33,NE,35,3.3,3.3,25,0.00,,---,0.00,VWS V14.01,2013-04-03 21:23:00,
2013-04-03 17:28:00,44.7,12.8,30.33,NE,35,3.3,3.3,27,0.00,,---,0.00,VWS V14.01,2013-04-03 21:28:00,
2013-04-03 17:33:00,44.5,8.1,30.33,NE,35,3.3,3.3,22,0.00,,---,0.00,VWS V14.01,2013-04-03 21:33:00,
2013-04-03 17:38:00,44.0,2.0,30.33,NE,35,4.0,4.0,17,0.00,,---,0.00,VWS V14.01,2013-04-03 21:38:00,
2013-04-03 17:44:00,44.0,13.0,30.33,NE,35,4.0,4.0,28,0.00,,---,0.00,VWS V14.01,2013-04-03 21:44:00,
2013-04-03 17:49:00,43.6,10.1,30.33,NE,35,4.0,4.0,25,0.00,,---,0.00,VWS V14.01,2013-04-03 21:49:00,
2013-04-03 17:55:00,44.2,5.7,30.33,South,170,4.6,4.6,20,0.00,,---,0.00,VWS V14.01,2013-04-03 21:55:00,
2013-04-03 18:00:00,43.5,2.8,30.33,South,170,4.6,4.6,18,0.00,,---,0.00,VWS V14.01,2013-04-03 22:00:00,
2013-04-03 18:05:00,43.5,8.1,30.33,South,170,4.6,4.6,23,0.00,,---,0.00,VWS V14.01,2013-04-03 22:05:00,
2013-04-03 18:10:00,43.6,10.1,30.33,South,170,4.6,4.6,25,0.00,,---,0.00,VWS V14.01,2013-04-03 22:10:00,
2013-04-03 18:16:00,43.5,5.1,30.33,East,80,0.0,0.0,20,0.00,,---,0.00,VWS V14.01,2013-04-03 22:16:00,
2013-04-03 18:21:00,43.1,7.8,30.33,East,80,0.0,0.0,23,0.00,,---,0.00,VWS V14.01,2013-04-03 22:21:00,
2013-04-03 18:26:00,43.3,9.8,30.33,NW,305,0.0,0.0,25,0.00,,---,0.00,VWS V14.01,2013-04-03 22:26:00,
2013-04-03 18:31:00,42.9,7.7,30.33,NE,35,4.6,4.6,23,0.00,,---,0.00,VWS V14.01,2013-04-03 22:31:00,
2013-04-03 18:36:00,42.7,4.5,30.33,NE,35,4.6,4.6,20,0.00,,---,0.00,VWS V14.01,2013-04-03 22:36:00,
2013-04-03 18:42:00,42.7,4.5,30.33,NE,35,4.6,4.6,20,0.00,,---,0.00,VWS V14.01,2013-04-03 22:42:00,
2013-04-03 18:47:00,42.4,9.1,30.33,NE,35,4.6,4.6,25,0.00,,---,0.00,VWS V14.01,2013-04-03 22:47:00,
2013-04-03 18:52:00,42.2,7.1,30.33,NE,35,4.6,4.6,23,0.00,,---,0.00,VWS V14.01,2013-04-03 22:52:00,
2013-04-03 18:57:00,42.2,1.8,30.33,NE,35,4.6,4.6,18,0.00,,---,0.00,VWS V14.01,2013-04-03 22:57:00,
2013-04-03 19:02:00,41.8,9.5,30.30,NE,35,4.6,4.6,26,0.00,,---,0.00,VWS V14.01,2013-04-03 23:02:00,
2013-04-03 19:08:00,41.7,6.6,30.30,NE,35,4.6,4.6,23,0.00,,---,0.00,VWS V14.01,2013-04-03 23:08:00,
2013-04-03 19:13:00,41.5,9.2,30.30,NE,35,4.6,4.6,26,0.00,,---,0.00,VWS V14.01,2013-04-03 23:13:00,
2013-04-03 19:18:00,41.5,10.8,30.30,NE,35,4.6,4.6,28,0.00,,---,0.00,VWS V14.01,2013-04-03 23:18:00,
2013-04-03 19:24:00,41.3,10.7,30.30,NE,35,4.6,4.6,28,0.00,,---,0.00,VWS V14.01,2013-04-03 23:24:00,
2013-04-03 19:30:00,41.1,8.9,30.30,NE,35,4.6,4.6,26,0.00,,---,0.00,VWS V14.01,2013-04-03 23:30:00,
2013-04-03 19:35:00,40.9,10.4,30.30,NE,35,4.6,4.6,28,0.00,,---,0.00,VWS V14.01,2013-04-03 23:35:00,
2013-04-03 19:40:00,40.6,10.0,30.30,NE,35,4.6,4.6,28,0.00,,---,0.00,VWS V14.01,2013-04-03 23:40:00,
2013-04-03 19:45:00,40.2,10.5,30.33,NE,35,4.6,4.6,29,0.00,,---,0.00,VWS V14.01,2013-04-03 23:45:00,
2013-04-03 19:51:00,40.0,10.4,30.33,NE,35,4.6,4.6,29,0.00,,---,0.00,VWS V14.01,2013-04-03 23:51:00,
2013-04-03 19:56:00,39.9,10.2,30.33,NE,35,4.6,4.6,29,0.00,,---,0.00,VWS V14.01,2013-04-03 23:56:00,
2013-04-03 20:01:00,39.5,9.9,30.33,NE,35,4.6,4.6,29,0.00,,---,0.00,VWS V14.01,2013-04-04 00:01:00,
2013-04-03 20:06:00,39.1,9.6,30.33,NE,35,4.6,4.6,29,0.00,,---,0.00,VWS V14.01,2013-04-04 00:06:00,
2013-04-03 20:11:00,38.6,9.1,30.33,NE,35,4.6,4.6,29,0.00,,---,0.00,VWS V14.01,2013-04-04 00:11:00,
2013-04-03 20:17:00,38.2,9.6,30.33,NE,35,4.6,4.6,30,0.00,,---,0.00,VWS V14.01,2013-04-04 00:17:00,
2013-04-03 20:22:00,37.7,9.8,30.33,NE,35,4.6,4.6,31,0.00,,---,0.00,VWS V14.01,2013-04-04 00:22:00,
2013-04-03 20:27:00,37.2,9.3,30.33,SE,125,0.0,0.0,31,0.00,,---,0.00,VWS V14.01,2013-04-04 00:27:00,
2013-04-03 20:32:00,36.8,9.0,30.30,ESE,102,0.0,0.0,31,0.00,,---,0.00,VWS V14.01,2013-04-04 00:32:00,
2013-04-03 20:38:00,36.4,9.4,30.30,East,80,0.0,0.0,32,0.00,,---,0.00,VWS V14.01,2013-04-04 00:38:00,
2013-04-03 20:43:00,36.3,9.2,30.30,West,260,4.0,4.0,32,0.00,,---,0.00,VWS V14.01,2013-04-04 00:43:00,
2013-04-03 20:48:00,35.7,8.8,30.30,WNW,282,2.3,4.0,32,0.00,,---,0.00,VWS V14.01,2013-04-04 00:48:00,
2013-04-03 20:53:00,35.4,8.4,30.30,WNW,282,1.3,1.3,32,0.00,,---,0.00,VWS V14.01,2013-04-04 00:53:00,
2013-04-03 20:58:00,35.4,8.4,30.30,West,260,2.3,2.3,32,0.00,,---,0.00,VWS V14.01,2013-04-04 00:58:00,
2013-04-03 21:04:00,35.4,9.1,30.30,NW,305,2.0,4.0,33,0.00,,---,0.00,VWS V14.01,2013-04-04 01:04:00,
2013-04-03 21:09:00,35.2,9.6,30.30,WNW,282,0.0,0.0,34,0.00,,---,0.00,VWS V14.01,2013-04-04 01:09:00,
2013-04-03 21:14:00,35.2,9.6,30.33,West,260,3.6,3.6,34,0.00,,---,0.00,VWS V14.01,2013-04-04 01:14:00,
2013-04-03 21:19:00,35.2,9.6,30.33,West,260,3.6,3.6,34,0.00,,---,0.00,VWS V14.01,2013-04-04 01:19:00,
2013-04-03 21:24:00,35.0,9.5,30.33,NW,305,3.3,3.3,34,0.00,,---,0.00,VWS V14.01,2013-04-04 01:24:00,
2013-04-03 21:30:00,34.6,9.8,30.33,NW,305,1.3,1.7,35,0.00,,---,0.00,VWS V14.01,2013-04-04 01:30:00,
2013-04-03 21:35:00,34.5,9.6,30.33,NW,305,0.0,0.0,35,0.00,,---,0.00,VWS V14.01,2013-04-04 01:35:00,
2013-04-03 21:40:00,34.1,9.3,30.33,NW,305,3.0,3.0,35,0.00,,---,0.00,VWS V14.01,2013-04-04 01:40:00,
2013-04-03 21:45:00,33.9,9.8,30.33,West,260,4.6,4.6,36,0.00,,---,0.00,VWS V14.01,2013-04-04 01:45:00,
2013-04-03 21:51:00,33.7,9.6,30.33,WNW,282,2.0,4.6,36,0.00,,---,0.00,VWS V14.01,2013-04-04 01:51:00,
2013-04-03 21:56:00,33.6,10.1,30.33,NW,305,2.3,2.3,37,0.00,,---,0.00,VWS V14.01,2013-04-04 01:56:00,
2013-04-03 22:01:00,33.4,9.9,30.33,West,260,2.3,2.3,37,0.00,,---,0.00,VWS V14.01,2013-04-04 02:01:00,
2013-04-03 22:06:00,33.2,9.8,30.33,West,260,2.3,2.3,37,0.00,,---,0.00,VWS V14.01,2013-04-04 02:06:00,
2013-04-03 22:11:00,33.0,10.2,30.33,NW,305,3.6,3.6,38,0.00,,---,0.00,VWS V14.01,2013-04-04 02:11:00,
2013-04-03 22:17:00,32.8,10.6,30.33,NW,305,3.6,3.6,39,0.00,,---,0.00,VWS V14.01,2013-04-04 02:17:00,
2013-04-03 22:22:00,32.7,11.0,30.33,NW,305,3.0,3.0,40,0.00,,---,0.00,VWS V14.01,2013-04-04 02:22:00,
2013-04-03 22:27:00,32.1,10.5,30.33,NW,305,1.3,1.3,40,0.00,,---,0.00,VWS V14.01,2013-04-04 02:27:00,
2013-04-03 22:32:00,31.9,10.4,30.33,NW,305,0.0,0.0,40,0.00,,---,0.00,VWS V14.01,2013-04-04 02:32:00,
2013-04-03 22:37:00,31.6,10.1,30.33,NW,305,0.0,0.0,40,0.00,,---,0.00,VWS V14.01,2013-04-04 02:37:00,
2013-04-03 22:43:00,31.6,10.1,30.33,NW,305,0.0,0.0,40,0.00,,---,0.00,VWS V14.01,2013-04-04 02:43:00,
2013-04-03 22:48:00,31.4,9.9,30.33,NW,305,0.0,0.0,40,0.00,,---,0.00,VWS V14.01,2013-04-04 02:48:00,
2013-04-03 22:53:00,31.0,9.6,30.33,NW,305,0.0,0.0,40,0.00,,---,0.00,VWS V14.01,2013-04-04 02:53:00,
2013-04-03 22:58:00,30.9,9.4,30.33,WNW,282,1.3,1.3,40,0.00,,---,0.00,VWS V14.01,2013-04-04 02:58:00,
2013-04-03 23:03:00,30.5,9.1,30.33,NW,305,0.0,0.0,40,0.00,,---,0.00,VWS V14.01,2013-04-04 03:03:00,
2013-04-03 23:09:00,30.3,8.9,30.33,NW,305,0.0,0.0,40,0.00,,---,0.00,VWS V14.01,2013-04-04 03:09:00,
2013-04-03 23:14:00,29.8,9.0,30.33,NW,305,0.0,0.0,41,0.00,,---,0.00,VWS V14.01,2013-04-04 03:14:00,
2013-04-03 23:20:00,29.6,8.8,30.33,NW,305,0.0,0.0,41,0.00,,---,0.00,VWS V14.01,2013-04-04 03:20:00,
2013-04-03 23:25:00,29.6,8.8,30.33,NW,305,0.0,0.0,41,0.00,,---,0.00,VWS V14.01,2013-04-04 03:25:00,
2013-04-03 23:30:00,29.4,8.6,30.30,NW,305,0.0,0.0,41,0.00,,---,0.00,VWS V14.01,2013-04-04 03:30:00,
2013-04-03 23:35:00,29.2,8.5,30.30,NW,305,0.0,0.0,41,0.00,,---,0.00,VWS V14.01,2013-04-04 03:35:00,
2013-04-03 23:41:00,29.1,8.3,30.30,NW,305,0.0,0.0,41,0.00,,---,0.00,VWS V14.01,2013-04-04 03:41:00,
2013-04-03 23:46:00,28.9,8.1,30.30,NW,305,0.0,0.0,41,0.00,,---,0.00,VWS V14.01,2013-04-04 03:46:00,
2013-04-03 23:51:00,28.9,8.1,30.30,NW,305,0.0,0.0,41,0.00,,---,0.00,VWS V14.01,2013-04-04 03:51:00,
2013-04-03 23:56:00,28.7,8.5,30.30,NW,305,0.0,0.0,42,0.00,,---,0.00,VWS V14.01,2013-04-04 03:56:00,